Temperature
14 14 15 15 12 9 11 12 12 13 14 14 15 15 14 15 15 16 16 16 16 16 16 15 15 15 15 15 16 16 16 16 15 15 15 15 15 15 15 15 15 15 15 15 15 15 15 15 15
13 14 14 14 10 10 11 11 12 13 14 14 14 14 14 14 15 15 15 15 15 16 15 15 15 15 15 15 15 15 15 15 15 15 15 15 15 15 15 15 15 15 15 15 15 15 15 15 15
13 13 14 9 9 10 12 12 11 12 14 14 14 14 14 14 14 14 15 15 15 15 15 15 15 15 15 15 15 15 15 15 15 15 15 15 15 15 15 15 15 15 15 15 15 15 15 15 14
13 13 12 9 10 10 11 11 11 11 13 13 13 13 13 14 14 14 14 14 15 15 15 15 15 15 15 15 15 15 15 15 15 15 15 15 15 15 15 15 15 15 15 14 14 15 14 14 14
13 12 9 8 10 10 10 11 11 11 11 12 12 12 13 14 14 14 14 14 14 14 14 14 14 15 15 15 14 15 15 15 15 15 15 15 15 15 15 15 15 15 15 14 14 14 14 14 14
12 9 8 8 9 10 10 11 11 11 11 12 12 11 13 13 14 14 13 13 14 14 14 14 14 14 14 14 14 14 15 15 15 15 15 15 15 15 15 14 15 15 14 14 14 14 14 14 14
10 7 8 9 9 9 11 11 11 10 10 11 12 11 12 13 13 13 13 13 13 14 14 14 14 14 14 14 14 14 14 14 15 15 15 15 14 14 14 14 14 14 14 14 14 14 14 14 14
10 7 8 8 9 10 11 11 11 11 11 12 12 11 12 12 12 12 13 13 13 13 13 13 13 14 14 14 14 14 14 14 14 14 14 14 14 14 14 14 14 14 14 14 14 14 14 13 13
10 7 7 8 9 9 10 10 11 11 11 11 11 12 12 12 12 12 12 12 13 13 13 13 13 13 13 14 14 14 14 14 14 14 14 14 14 14 14 14 14 14 14 14 14 13 13 13 13
9 7 8 9 9 9 10 10 10 10 10 10 11 12 12 12 12 12 12 12 12 12 13 13 13 13 13 13 13 13 14 14 14 14 14 14 14 14 14 14 14 14 14 13 13 13 13 13 13
8 7 8 9 10 10 9 10 10 9 9 10 11 11 11 11 11 11 11 12 12 12 12 12 12 12 13 13 13 13 13 13 13 14 13 13 13 13 14 14 13 13 13 13 13 13 13 12 12
8 8 9 9 10 10 9 9 9 9 10 11 11 11 11 11 11 11 11 11 11 12 12 12 12 12 12 12 13 13 13 13 13 13 13 13 13 13 13 13 13 13 13 13 13 13 12 12 12
7 8 9 9 9 9 9 9 9 10 11 11 11 11 11 11 11 10 10 11 11 11 12 12 12 12 12 12 12 12 13 13 13 13 13 13 13 13 13 13 13 13 13 12 12 12 12 12 12
8 8 8 9 9 9 9 9 9 10 11 11 11 11 11 11 11 10 10 11 11 11 12 11 11 11 12 12 12 12 12 12 12 12 12 12 12 12 12 12 12 12 12 12 12 12 12 11 11
8 8 8 8 9 9 9 8 8 10 10 10 10 10 10 11 11 11 11 11 11 11 11 11 11 11 11 11 11 11 11 12 12 12 12 12 12 12 12 12 12 12 12 12 12 11 11 11 11
7 7 7 8 8 9 8 8 9 10 10 9 10 10 10 10 10 10 10 10 11 11 11 11 11 11 11 11 11 11 11 11 11 11 12 12 12 12 12 12 12 11 11 11 11 11 11 11 11
6 6 7 7 8 8 8 8 9 10 9 9 9 10 10 10 10 10 10 10 10 11 11 11 11 11 10 10 10 11 11 11 11 11 11 11 11 11 11 11 11 11 11 11 11 11 11 11 10
7 6 7 7 8 8 7 7 8 9 9 9 9 9 10 10 10 10 10 10 10 10 10 10 10 10 10 10 10 10 10 10 10 11 11 11 11 11 11 11 11 11 10 10 10 10 10 10 10
7 7 7 7 8 7 7 7 8 8 8 8 9 9 10 10 10 10 10 10 10 10 10 10 10 10 10 10 10 10 10 10 10 10 10 10 10 10 10 10 10 10 10 10 10 10 10 10 10
7 7 7 7 7 8 7 7 8 8 8 8 9 9 10 10 10 10 10 10 10 10 10 10 10 10 9 9 10 10 10 10 10 10 10 10 10 10 10 10 10 10 10 10 10 10 9 9 9
7 7 7 7 7 7 7 7 8 8 8 9 9 9 10 9 9 10 10 10 10 10 10 10 10 9 9 9 9 9 9 9 9 10 10 10 10 10 10 9 9 9 9 9 9 9 9 9 9
7 7 7 7 6 6 6 7 7 7 7 8 8 9 9 9 10 10 10 10 9 9 9 9 9 9 9 9 9 9 9 9 9 9 9 9 9 9 9 9 9 9 9 9 9 9 9 9 9
7 7 7 7 6 6 6 6 7 7 8 8 8 9 9 10 10 10 10 10 10 9 9 9 9 9 9 9 9 9 9 9 9 9 9 9 9 9 9 9 9 9 8 8 8 8 8 8 8
7 7 7 6 6 7 6 6 7 6 8 8 8 9 9 9 10 10 10 10 10 9 9 9 9 9 9 9 9 9 9 9 8 8 8 8 8 8 8 8 8 8 8 8 8 8 8 8 8
6 6 6 6 6 6 6 6 6 7 7 7 8 9 9 10 9 9 9 9 9 9 9 9 9 9 9 9 9 8 8 8 8 8 8 8 8 8 8 8 8 8 8 7 7 7 7 7 7
6 6 6 7 6 6 6 6 7 7 7 8 8 9 9 9 9 9 10 9 9 9 9 9 8 8 8 8 8 8 8 8 8 8 8 8 8 8 8 7 7 7 7 7 7 7 7 7 7
7 6 6 5 5 5 6 6 7 8 7 7 8 8 9 9 9 9 9 9 9 9 9 9 8 8 8 8 8 8 8 8 8 8 7 7 7 7 7 7 7 7 7 7 7 7 6 6 6
7 6 5 6 7 7 7 6 7 7 7 7 7 7 8 9 9 9 9 9 9 9 9 8 8 8 8 8 8 8 8 8 7 7 7 7 7 7 7 7 7 7 7 7 6 6 6 6 6
6 6 5 5 5 6 6 7 7 7 7 6 6 7 8 8 9 9 9 9 9 9 9 8 8 8 8 8 8 7 7 7 7 7 7 7 7 7 7 6 6 6 6 6 6 6 6 6 6
6 6 5 6 6 5 5 6 7 6 6 6 7 7 8 8 8 8 9 9 9 9 9 8 8 8 8 8 7 7 7 7 7 7 7 6 6 6 6 6 6 6 6 6 6 6 5 5 5
Wind_Speed
12 8 3 4 5 4 2 4 3 3 2 2 1 2 4 4 4 3 1 1 3 5 8 10 11 11 10 11 12 12 12 12 11 11 11 11 10 10 9 9 9 8 9 9 9 9 9 9 9
7 4 5 5 4 2 4 4 4 4 3 2 2 1 1 2 1 1 1 1 2 4 7 10 11 12 11 11 11 12 12 11 11 10 10 10 10 9 9 8 8 8 8 8 9 9 9 8 9
5 5 5 4 4 5 4 3 4 4 3 2 2 2 1 2 2 1 2 1 2 3 6 10 13 12 11 11 11 11 11 11 11 10 10 10 9 9 8 8 8 8 8 8 9 9 8 8 8
4 5 5 4 3 4 4 3 3 4 4 3 1 2 2 2 1 2 1 2 3 2 5 10 13 12 12 11 10 11 10 10 11 10 10 9 9 9 8 8 8 8 8 8 8 8 8 8 8
4 5 4 1 3 3 3 4 2 2 3 3 1 2 3 3 2 0 1 3 3 2 3 7 12 12 12 11 10 11 11 10 10 10 10 9 9 8 8 8 8 8 8 7 8 8 8 8 8
5 4 3 3 4 4 4 3 1 2 3 3 1 2 4 2 1 0 1 2 3 3 3 6 10 11 11 11 10 10 10 10 9 9 9 9 8 8 8 7 7 7 7 7 7 7 7 8 8
4 4 3 2 3 4 3 1 1 2 4 4 2 2 4 3 2 1 1 1 2 3 3 4 7 9 10 10 10 9 10 10 9 8 8 8 8 8 8 7 7 7 7 7 7 7 7 8 9
4 4 1 2 3 4 3 2 1 2 5 3 2 3 4 4 3 1 1 1 3 3 4 4 5 7 8 8 10 9 9 10 9 8 8 8 8 8 7 7 7 7 7 7 7 7 8 9 9
4 3 2 3 4 4 3 3 3 2 2 3 2 3 5 3 1 0 0 1 2 3 3 4 5 7 7 7 8 8 8 9 9 8 8 8 8 8 7 7 7 7 7 7 7 7 8 9 9
4 3 4 4 3 4 4 3 3 3 4 4 4 4 3 1 2 3 3 4 4 4 3 4 4 5 6 7 7 8 7 8 8 8 8 7 7 7 7 7 7 7 7 7 7 8 8 9 9
2 4 3 4 5 4 4 4 3 3 6 6 6 6 3 3 3 5 5 5 5 4 4 4 4 4 5 5 6 6 6 6 7 7 7 8 7 7 7 7 6 6 7 7 7 8 8 8 8
1 4 4 4 4 4 4 4 4 6 9 8 7 5 4 5 6 6 5 5 5 4 4 3 3 3 4 5 4 5 5 5 5 6 7 7 5 5 5 5 5 6 6 6 7 7 7 8 8
2 4 4 6 7 6 6 7 6 8 10 7 5 5 5 7 6 4 4 3 5 5 4 3 3 3 3 4 3 4 4 4 5 5 5 6 5 4 4 4 4 5 6 6 5 6 6 6 6
3 4 7 7 7 4 5 7 5 9 6 4 3 5 6 6 5 4 3 3 5 6 5 4 3 4 5 4 3 3 4 4 5 5 5 6 6 5 4 3 3 4 4 5 5 5 4 4 4
3 4 7 4 4 3 2 6 6 8 3 3 5 5 6 5 4 5 5 4 4 5 5 5 4 4 5 5 4 4 4 4 5 4 5 5 5 5 5 3 2 3 4 5 6 5 5 3 3
2 3 5 5 3 3 1 8 8 3 2 5 6 5 5 4 4 4 4 3 3 5 6 5 5 5 4 4 4 4 4 4 4 4 5 4 5 5 5 3 2 3 4 4 3 3 3 3 3
3 3 5 7 3 2 2 8 8 4 3 6 6 5 5 4 3 2 3 3 4 5 6 6 5 5 4 4 4 5 4 4 4 4 4 4 4 4 5 3 3 4 4 3 3 3 2 2 2
5 5 5 7 5 4 5 10 11 7 5 6 5 5 4 4 4 2 2 3 3 4 5 5 5 5 5 4 3 3 3 2 3 3 3 4 4 4 4 4 3 4 2 2 2 3 3 2 2
5 6 9 8 5 5 8 11 12 8 5 6 5 4 5 5 2 1 1 2 3 3 4 5 5 5 5 3 2 2 1 1 1 2 3 4 4 4 4 3 3 3 2 2 3 3 3 3 2
5 6 7 8 4 4 7 10 9 5 4 5 5 5 5 3 1 1 2 2 3 4 4 4 5 5 5 3 2 2 2 1 0 1 2 3 4 3 3 3 2 2 2 2 2 2 2 2 2
4 4 5 7 7 4 5 8 5 4 2 2 2 3 3 4 4 2 3 3 2 4 5 5 5 5 4 4 3 3 3 2 1 0 0 1 3 3 3 3 3 2 2 2 2 2 3 2 1
5 4 5 6 5 4 3 4 7 5 4 3 3 2 3 3 3 3 4 4 4 4 3 4 4 5 5 5 5 5 3 2 2 2 1 1 2 3 3 3 4 3 2 2 2 2 2 3 2
5 5 4 3 2 3 3 1 7 4 4 5 4 4 4 4 4 4 5 5 4 3 3 3 3 3 4 5 6 5 3 2 1 1 2 1 1 2 2 3 3 3 2 2 2 2 2 2 3
4 3 2 2 2 2 2 1 6 4 4 5 5 5 4 3 3 4 3 3 3 2 2 3 4 3 4 4 4 5 5 4 3 2 2 1 1 1 1 2 2 3 3 2 2 2 3 2 2
4 4 5 6 4 4 3 2 7 6 5 5 6 6 4 3 3 3 3 4 4 4 3 3 4 3 4 4 4 4 5 5 5 4 3 2 1 2 2 2 2 2 3 3 3 3 3 3 3
2 2 3 1 4 6 4 4 6 6 6 5 5 4 3 2 2 4 5 5 5 5 5 5 5 4 4 4 4 4 4 3 3 4 3 4 3 3 2 3 3 3 3 4 3 2 3 3 3
1 1 2 3 2 4 6 7 8 4 5 6 5 4 4 3 2 3 3 4 4 5 6 6 6 5 5 4 4 4 4 4 4 3 3 3 3 2 3 3 3 3 3 3 3 3 3 3 3
1 3 3 2 1 4 7 6 5 7 8 8 7 6 6 4 3 3 3 4 4 5 5 5 5 6 4 4 4 4 4 4 4 3 4 4 3 3 3 3 3 3 3 3 3 3 3 3 3
1 1 2 2 2 1 5 7 4 5 5 6 7 7 7 6 5 4 3 3 3 3 4 4 4 4 4 4 4 4 3 3 3 4 4 4 4 4 4 4 3 3 3 3 3 4 4 4 4
2 3 4 1 2 2 3 8 5 4 5 5 8 8 7 7 5 4 3 2 2 3 3 4 4 4 4 4 4 4 4 3 3 4 4 4 4 4 4 3 3 4 4 4 4 5 5 5 5
Wind_Direction
345 353 44 52 57 55 228 245 242 284 277 289 285 216 190 188 188 221 327 114 119 152 165 165 159 146 143 144 143 138 132 127 123 120 119 118 114 110 106 101 98 96 90 89 90 89 88 87 85
344 3 49 60 100 179 259 248 244 248 268 317 338 340 196 246 285 316 329 319 129 153 160 163 157 147 141 141 142 140 135 130 127 122 118 116 113 111 108 106 103 98 93 88 87 88 89 87 88
3 38 75 83 131 188 223 240 252 290 300 337 345 337 243 253 291 255 283 183 119 139 154 162 155 148 142 139 138 138 139 135 130 126 120 117 115 112 107 103 102 98 95 91 89 89 89 89 91
48 42 56 83 203 219 227 266 289 321 337 356 4 300 289 292 261 267 271 140 118 113 143 160 155 149 144 137 139 140 136 137 133 129 126 121 118 114 109 105 104 101 98 95 92 90 87 88 88
54 72 69 23 252 259 261 284 299 318 307 319 344 277 280 316 316 315 156 147 137 129 129 153 155 149 145 141 139 141 136 131 133 132 128 125 118 116 110 105 104 103 101 99 95 90 86 84 84
53 67 104 227 261 282 283 283 307 317 297 305 300 268 271 312 15 317 135 163 148 142 129 145 151 147 143 140 138 138 134 130 127 129 129 125 118 113 110 105 103 102 102 100 96 93 88 87 81
98 99 161 210 264 284 279 277 224 285 286 274 249 248 283 300 298 313 54 144 134 123 106 113 135 141 141 137 135 134 135 132 127 125 127 124 119 116 110 107 106 103 103 101 98 94 91 86 81
114 107 131 238 242 263 291 315 265 246 265 270 198 220 263 276 298 332 50 111 130 119 111 99 107 117 122 128 131 129 132 130 125 122 119 119 119 115 108 105 109 105 103 101 98 97 94 86 83
88 88 202 227 223 259 300 316 313 294 269 282 249 242 264 262 274 354 50 132 150 134 117 100 100 107 112 117 120 116 121 124 121 118 115 113 110 106 101 102 107 103 102 100 99 97 95 90 84
90 152 221 224 222 255 285 276 287 314 304 281 282 295 295 215 198 200 214 193 179 169 133 107 100 110 109 110 108 101 105 112 114 115 112 110 108 105 105 100 100 100 97 98 95 95 93 88 82
131 193 238 259 252 257 274 277 252 243 271 256 262 281 279 243 232 219 216 202 185 175 139 118 109 101 105 108 109 105 106 107 109 113 115 110 103 99 97 91 87 88 89 84 83 82 84 86 86
237 247 241 267 269 263 258 263 269 234 250 262 258 252 240 239 236 228 214 207 178 163 143 122 112 111 100 105 106 110 108 108 108 113 120 114 104 94 90 87 85 83 86 83 80 80 82 83 86
248 270 272 266 278 266 263 256 260 260 266 275 270 258 243 240 243 239 228 205 173 163 151 138 130 129 128 115 105 104 104 117 119 117 122 126 117 115 97 85 85 84 89 89 85 85 84 80 78
267 277 286 285 278 268 261 270 258 265 273 279 265 260 250 242 237 229 217 208 182 168 157 142 144 145 138 129 111 109 113 125 118 113 118 126 124 121 110 90 81 80 93 100 98 94 91 82 80
291 304 311 292 282 275 279 289 249 264 290 287 272 268 260 248 233 224 215 210 190 166 153 152 149 138 131 125 124 114 123 130 121 121 122 125 126 123 117 103 86 80 101 103 97 88 84 81 76
343 348 318 302 300 284 196 278 280 271 254 272 276 274 266 257 239 230 209 200 187 160 152 155 154 140 132 124 122 118 125 133 128 127 123 126 128 127 115 109 93 89 101 101 106 102 90 76 75
18 332 298 302 293 305 243 269 286 297 269 273 277 274 271 271 258 222 186 180 181 170 156 154 146 142 131 122 113 105 101 119 128 123 120 127 128 129 118 112 102 103 96 100 120 101 101 91 75
304 305 295 290 299 306 279 274 290 295 274 271 271 267 261 253 249 228 169 159 159 155 150 147 140 138 128 116 102 92 74 73 101 114 124 132 133 138 125 108 105 102 100 112 125 116 88 98 95
260 275 287 280 287 294 276 279 287 290 279 272 265 250 248 244 244 160 127 137 135 139 146 149 145 143 140 136 135 126 112 70 73 105 122 130 131 133 124 116 108 106 113 127 126 124 106 80 81
259 287 296 295 310 296 291 288 285 275 264 256 253 247 240 237 218 142 131 141 162 166 163 159 158 158 160 156 139 128 126 109 124 103 108 129 134 140 136 129 127 125 116 112 101 115 126 91 77
287 265 287 296 317 327 323 317 315 312 281 291 270 249 238 225 220 205 174 180 180 179 179 175 166 162 161 143 119 100 81 69 64 158 152 132 141 140 138 142 137 134 133 135 127 130 137 145 89
290 264 275 294 328 321 12 316 308 316 323 314 293 276 254 245 226 209 194 190 191 199 186 171 166 160 161 154 153 154 158 184 215 210 189 124 135 141 153 162 150 145 144 149 157 149 143 149 156
260 290 278 277 283 320 349 276 294 327 324 310 297 281 262 242 220 210 205 199 186 179 172 166 159 161 165 165 167 161 164 184 186 158 153 146 109 135 158 166 159 154 154 164 166 143 147 156 163
284 327 334 47 61 337 304 225 296 296 283 303 300 293 279 252 222 208 195 173 159 151 157 158 163 173 175 172 171 174 175 168 162 190 187 186 181 177 176 172 169 167 160 176 181 165 167 161 155
28 35 14 6 7 280 305 255 261 277 284 285 290 289 287 261 217 201 186 180 177 176 177 172 176 187 185 176 179 191 188 179 187 194 201 193 204 220 218 199 187 181 181 181 178 179 185 177 171
347 90 114 270 281 296 323 268 265 282 296 297 297 297 301 280 237 217 204 198 197 194 190 183 191 197 192 189 192 192 188 191 198 194 196 205 215 220 211 200 202 197 185 182 177 192 198 184 187
53 106 168 152 264 285 291 295 304 313 341 348 346 343 331 302 267 240 224 209 206 204 202 195 194 198 198 193 190 192 190 194 196 196 196 208 215 214 196 197 205 201 190 188 181 198 203 189 196
131 144 86 91 350 303 304 297 283 314 331 336 338 331 321 319 297 257 230 218 212 208 205 198 195 199 197 189 192 198 196 196 192 187 202 213 216 208 195 202 208 210 204 195 189 201 205 197 209
87 92 107 120 171 212 302 290 246 273 303 314 314 316 316 311 300 282 255 228 212 201 196 199 200 196 193 192 193 193 195 194 189 196 211 214 212 207 203 205 206 208 211 203 201 209 204 209 221
194 185 151 154 266 209 243 275 282 278 294 304 311 319 324 315 304 290 269 233 210 207 202 203 206 206 206 198 194 197 192 189 194 206 217 214 213 213 208 202 205 212 213 206 206 215 210 211 218
Height
1509 1510 1511 1513 1518 1529 1530 1525 1520 1518 1516 1514 1514 1514 1513 1514 1516 1518 1512 1510 1511 1514 1516 1518 1521 1523 1524 1526 1528 1529 1530 1531 1532 1533 1534 1535 1535 1536 1537 1537 1538 1538 1538 1539 1539 1539 1540 1540 1540
1510 1511 1513 1514 1524 1534 1530 1522 1519 1516 1515 1514 1513 1512 1512 1511 1511 1510 1509 1509 1511 1513 1515 1518 1520 1522 1524 1526 1527 1529 1530 1531 1532 1533 1534 1535 1535 1536 1537 1537 1538 1538 1538 1539 1539 1539 1540 1540 1541
1510 1511 1513 1517 1527 1530 1524 1519 1518 1515 1514 1513 1513 1512 1511 1510 1510 1509 1509 1510 1511 1513 1515 1517 1520 1522 1523 1525 1527 1528 1530 1531 1532 1533 1534 1534 1535 1536 1537 1537 1538 1538 1539 1539 1539 1540 1540 1540 1541
1512 1513 1515 1522 1525 1523 1520 1517 1516 1515 1513 1513 1513 1512 1511 1510 1509 1509 1509 1510 1511 1513 1515 1517 1519 1521 1523 1525 1526 1528 1529 1530 1531 1532 1533 1534 1535 1536 1536 1537 1538 1538 1539 1539 1539 1540 1540 1541 1541
1512 1513 1521 1526 1524 1520 1518 1516 1516 1515 1514 1513 1513 1511 1509 1509 1509 1508 1509 1510 1511 1512 1514 1516 1518 1520 1522 1524 1525 1527 1529 1530 1531 1532 1533 1534 1534 1535 1536 1537 1537 1538 1539 1539 1539 1540 1540 1541 1541
1513 1515 1527 1528 1523 1519 1517 1516 1515 1515 1514 1513 1512 1511 1508 1508 1508 1508 1508 1509 1511 1512 1514 1515 1517 1519 1521 1523 1525 1526 1528 1529 1530 1531 1532 1533 1534 1535 1536 1536 1537 1538 1538 1539 1539 1540 1540 1541 1541
1515 1521 1526 1525 1524 1520 1516 1514 1514 1514 1513 1512 1512 1510 1507 1507 1507 1507 1508 1509 1510 1512 1513 1514 1516 1518 1520 1522 1524 1525 1527 1529 1530 1531 1532 1533 1533 1534 1535 1536 1537 1537 1538 1538 1539 1539 1540 1540 1541
1515 1521 1525 1526 1523 1519 1515 1514 1513 1513 1512 1511 1511 1509 1507 1506 1506 1506 1507 1508 1509 1511 1512 1513 1514 1517 1519 1521 1523 1525 1526 1527 1529 1530 1531 1532 1533 1534 1534 1535 1536 1537 1537 1538 1539 1539 1540 1540 1541
1516 1524 1527 1524 1521 1518 1515 1514 1512 1512 1511 1509 1509 1508 1506 1505 1505 1505 1505 1506 1507 1509 1510 1511 1513 1515 1517 1520 1521 1523 1525 1526 1528 1529 1530 1531 1532 1533 1534 1534 1535 1536 1537 1537 1538 1539 1539 1540 1540
1517 1525 1521 1518 1517 1515 1514 1513 1512 1510 1509 1507 1506 1505 1504 1503 1503 1502 1502 1503 1504 1506 1508 1509 1511 1513 1516 1518 1520 1522 1524 1525 1527 1528 1529 1530 1531 1532 1533 1534 1534 1535 1536 1537 1537 1538 1539 1539 1540
1518 1520 1517 1515 1514 1514 1512 1511 1510 1509 1508 1505 1504 1503 1502 1501 1501 1501 1501 1502 1503 1504 1505 1507 1509 1512 1514 1517 1519 1520 1522 1524 1525 1527 1528 1529 1530 1531 1532 1533 1533 1534 1535 1536 1537 1537 1538 1539 1539
1519 1517 1516 1514 1513 1512 1511 1509 1508 1506 1504 1503 1502 1501 1500 1499 1499 1498 1500 1500 1501 1502 1503 1506 1508 1510 1513 1515 1517 1519 1520 1522 1524 1525 1527 1528 1529 1530 1531 1532 1532 1533 1534 1535 1536 1536 1537 1538 1539
1518 1516 1514 1512 1511 1510 1508 1507 1505 1502 1501 1500 1499 1499 1498 1497 1497 1498 1497 1498 1500 1501 1502 1505 1507 1509 1511 1514 1515 1517 1518 1521 1522 1524 1525 1527 1528 1529 1530 1531 1531 1532 1533 1534 1535 1535 1536 1537 1538
1517 1515 1512 1510 1508 1507 1506 1503 1503 1497 1498 1497 1497 1496 1496 1495 1495 1496 1496 1496 1498 1500 1502 1504 1507 1509 1510 1512 1514 1516 1517 1519 1520 1522 1524 1525 1527 1528 1528 1529 1530 1531 1532 1533 1534 1535 1535 1536 1537
1516 1515 1511 1508 1506 1505 1505 1502 1498 1496 1496 1495 1495 1494 1493 1493 1493 1494 1494 1495 1496 1498 1501 1503 1505 1507 1509 1511 1513 1514 1516 1517 1519 1521 1523 1524 1525 1526 1527 1528 1529 1530 1531 1532 1533 1533 1534 1535 1536
1516 1517 1516 1509 1506 1504 1508 1504 1495 1495 1494 1493 1492 1492 1491 1491 1491 1492 1493 1494 1496 1497 1500 1502 1504 1506 1508 1510 1511 1513 1514 1516 1517 1520 1521 1522 1523 1525 1526 1527 1527 1529 1529 1530 1531 1532 1533 1534 1535
1521 1522 1518 1512 1506 1505 1505 1502 1494 1493 1492 1490 1490 1490 1490 1490 1490 1490 1491 1493 1494 1497 1498 1500 1503 1504 1506 1508 1509 1511 1512 1514 1516 1518 1519 1521 1522 1523 1525 1525 1526 1527 1528 1529 1530 1531 1532 1532 1533
1523 1522 1518 1514 1507 1505 1505 1500 1493 1491 1490 1488 1488 1488 1489 1489 1489 1490 1490 1492 1493 1495 1497 1499 1501 1503 1505 1506 1508 1509 1511 1513 1514 1516 1518 1519 1520 1522 1523 1524 1525 1526 1526 1527 1528 1529 1530 1531 1532
1521 1521 1518 1512 1506 1506 1503 1498 1492 1489 1488 1487 1486 1487 1487 1488 1488 1489 1490 1491 1493 1494 1496 1498 1500 1502 1503 1505 1506 1508 1510 1511 1513 1515 1516 1517 1519 1520 1521 1522 1523 1524 1525 1525 1526 1527 1528 1529 1530
1519 1518 1516 1510 1506 1505 1502 1497 1490 1488 1487 1486 1485 1485 1485 1486 1487 1488 1489 1490 1492 1493 1495 1497 1499 1501 1502 1504 1505 1506 1508 1509 1511 1513 1514 1516 1517 1518 1519 1520 1521 1522 1523 1523 1524 1525 1526 1526 1527
1516 1516 1515 1513 1508 1505 1503 1497 1490 1486 1485 1484 1484 1483 1484 1484 1485 1486 1488 1490 1491 1492 1494 1496 1498 1499 1501 1503 1504 1505 1507 1507 1509 1511 1512 1513 1514 1516 1516 1518 1519 1520 1521 1521 1522 1523 1523 1524 1525
1516 1512 1512 1512 1512 1512 1510 1508 1493 1489 1486 1484 1483 1482 1482 1483 1484 1485 1486 1488 1490 1491 1493 1495 1496 1498 1499 1501 1502 1504 1505 1506 1507 1508 1510 1511 1512 1513 1514 1516 1516 1517 1518 1519 1520 1521 1521 1522 1522
1514 1511 1511 1511 1511 1513 1512 1511 1499 1491 1487 1484 1482 1481 1481 1481 1482 1483 1484 1486 1488 1490 1492 1494 1495 1496 1498 1499 1501 1502 1503 1504 1506 1506 1507 1508 1509 1510 1511 1512 1513 1514 1515 1516 1517 1518 1519 1519 1519
1512 1511 1510 1512 1514 1514 1512 1513 1503 1495 1488 1484 1481 1480 1480 1480 1481 1482 1484 1485 1487 1489 1491 1492 1494 1495 1496 1498 1499 1500 1501 1502 1503 1504 1504 1505 1506 1507 1508 1509 1510 1511 1512 1513 1514 1515 1516 1517 1517
1514 1517 1521 1519 1522 1516 1512 1511 1503 1489 1486 1484 1481 1479 1478 1479 1479 1480 1482 1483 1485 1487 1489 1491 1492 1493 1495 1496 1497 1498 1499 1500 1501 1502 1502 1503 1504 1504 1505 1506 1507 1508 1509 1510 1511 1512 1513 1514 1514
1517 1519 1525 1525 1526 1520 1513 1510 1496 1487 1485 1483 1481 1479 1478 1478 1478 1479 1480 1482 1484 1485 1487 1489 1490 1491 1493 1494 1495 1496 1497 1498 1499 1500 1501 1501 1502 1502 1503 1504 1505 1505 1506 1507 1508 1509 1510 1511 1511
1517 1521 1521 1526 1526 1525 1514 1506 1494 1485 1484 1482 1481 1479 1478 1478 1478 1478 1479 1480 1482 1483 1485 1486 1488 1490 1491 1492 1493 1493 1494 1495 1496 1497 1498 1498 1499 1499 1500 1501 1501 1502 1503 1504 1505 1505 1506 1507 1508
1518 1520 1525 1524 1522 1520 1513 1508 1501 1489 1486 1484 1482 1480 1478 1478 1477 1477 1478 1479 1480 1482 1483 1485 1486 1487 1489 1490 1490 1491 1492 1493 1493 1494 1495 1496 1496 1496 1497 1498 1498 1499 1500 1500 1501 1502 1503 1503 1504
1519 1520 1522 1526 1525 1523 1520 1507 1493 1490 1488 1486 1483 1480 1478 1477 1476 1476 1476 1477 1478 1480 1481 1482 1484 1485 1486 1487 1488 1488 1489 1490 1491 1491 1492 1493 1493 1494 1494 1494 1495 1496 1496 1497 1497 1498 1498 1499 1500
1516 1518 1522 1524 1524 1527 1526 1511 1489 1488 1486 1485 1482 1480 1478 1476 1475 1474 1474 1475 1476 1477 1478 1480 1481 1482 1484 1485 1485 1486 1487 1487 1488 1488 1489 1490 1490 1490 1491 1491 1491 1492 1492 1493 1494 1494 1494 1495 1495